This demonstration page uses our WeatherBlox Daily Observations layout. Learn more.

Left ArrowRight Arrow

36.17497, -115.13722

Hourly Observations for September 5, 2016

Temp ( °F °C ) Dew Point ( °F °C ) Humidity (%) Winds ( mph kmh ) Pressure ( in mb ) Visibility ( mi km ) Precip ( " mm )
12:53 am 00:53 Clear 79 26.1 16 -8.9 9 9 SSW 9 15 29.64 1004 10 16.0934 0 0
1:53 am 01:53 Clear 76 24.4 19 -7.2 12 12 S 12 19 29.64 1004 10 16.0934 0 0
2:53 am 02:53 Clear 73 22.8 21 -6.1 14 14 NE 5 7 29.66 1004 10 16.0934 0 0
3:53 am 03:53 Clear 71 21.7 21 -6.1 15 15 N 3 6 29.67 1005 10 16.0934 0 0
4:53 am 04:53 Clear 68 20 22 -5.6 17 17 NNW 7 11 29.68 1005 10 16.0934 0 0
5:53 am 05:53 Clear 68 20 19 -7.2 15 15 NNW 7 11 29.7 1006 10 16.0934 0 0
6:53 am 06:53 Sunny 69 20.6 18 -7.8 14 14 N 7 11 29.71 1006 10 16.0934 0 0
7:53 am 07:53 Sunny 74 23.3 20 -6.7 13 13 N 8 13 29.73 1007 10 16.0934 0 0
8:53 am 08:53 Sunny 77 25 23 -5 13 13 Calm 29.73 1007 10 16.0934 0 0
9:53 am 09:53 Sunny 80 26.7 25 -3.9 13 13 E 3 6 29.75 1007 10 16.0934 0 0
10:53 am 10:53 Sunny 82 27.8 26 -3.3 13 13 SSE 3 6 29.75 1007 10 16.0934 0 0
11:53 am 11:53 Sunny 85 29.4 29 -1.7 13 13 undefined N/A 29.74 1007 10 16.0934 0 0
12:53 pm 12:53 Sunny 86 30 28 -2.2 12 12 VRB 5 7 29.72 1007 10 16.0934 0 0
1:53 pm 13:53 Sunny 88 31.1 28 -2.2 11 11 undefined N/A 29.71 1006 10 16.0934 0 0
2:53 pm 14:53 Sunny 89 31.7 27 -2.8 11 11 ESE 9 15 29.69 1005 10 16.0934 0 0
3:53 pm 15:53 Sunny 91 32.8 26 -3.3 9 9 SSE 9 15 29.67 1005 10 16.0934 0 0
4:53 pm 16:53 Sunny 90 32.2 26 -3.3 10 10 SE 9 15 29.66 1005 10 16.0934 0 0
5:53 pm 17:53 Sunny 91 32.8 26 -3.3 9 9 E 7 11 29.66 1004 10 16.0934 0 0
6:53 pm 18:53 Sunny 89 31.7 23 -5 9 9 ESE 7 11 29.66 1004 10 16.0934 0 0
7:53 pm 19:53 Clear 85 29.4 24 -4.4 11 11 E 5 7 29.67 1005 10 16.0934 0 0
8:53 pm 20:53 Clear 84 28.9 23 -5 10 10 E 6 9 29.69 1006 10 16.0934 0 0
9:53 pm 21:53 Clear 82 27.8 26 -3.3 13 13 NW 6 9 29.7 1006 10 16.0934 0 0
10:53 pm 22:53 Clear 78 25.6 28 -2.2 16 16 N 7 11 29.72 1006 10 16.0934 0 0
11:53 pm 23:53 Clear 78 25.6 24 -4.4 13 13 N 7 11 29.72 1006 10 16.0934 0 0

Powered by AerisWeather